This is the latest recevied weather packets stored in our database for station/object GBTWP-2. If no packets are shown the sender has not sent any weather packets the latest 10 day(s).
| Time | Temp. | Humidity | Pressure | Rain* | Wind** | Luminosity | Snow |
|---|---|---|---|---|---|---|---|
| 1777863302 | 11.11° C | 64% | 1010.5 hPa | 0 mm | - | 0 W/m² | - |
| 1777863001 | 11.11° C | 63% | 1010.4 hPa | 0 mm | - | 0 W/m² | - |
| 1777862702 | 11.11° C | 62% | 1010.5 hPa | 0 mm | - | 0 W/m² | - |
| 1777862402 | 11.11° C | 63% | 1010.5 hPa | 0 mm | - | 0 W/m² | - |
| 1777862101 | 11.11° C | 64% | 1010.7 hPa | 0 mm | - | 0 W/m² | - |
| 1777861802 | 11.11° C | 63% | 1010.8 hPa | 0 mm | - | 0 W/m² | - |
| 1777861501 | 11.11° C | 63% | 1010.5 hPa | 0 mm | - | 0 W/m² | - |
| 1777861202 | 11.11° C | 63% | 1010.4 hPa | 0 mm | - | 0 W/m² | - |
| 1777860602 | 11.67° C | 62% | 1010.9 hPa | 0 mm | - | 0 W/m² | - |
| 1777860302 | 11.11° C | 63% | 1010.8 hPa | 0 mm | - | 0 W/m² | - |
| 1777860001 | 11.67° C | 62% | 1010.8 hPa | 0 mm | - | 0 W/m² | - |
| 1777859102 | 11.67° C | 61% | 1010.8 hPa | 0 mm | - | 0 W/m² | - |
| 1777858802 | 11.67° C | 61% | 1010.9 hPa | 0 mm | - | 0 W/m² | - |
| 1777858502 | 11.67° C | 61% | 1010.5 hPa | 0 mm | - | 0 W/m² | - |
| 1777858202 | 12.22° C | 60% | 1010.8 hPa | 0 mm | - | 0 W/m² | - |
| 1777857901 | 12.22° C | 60% | 1010.8 hPa | 0 mm | - | 0 W/m² | - |
| 1777857002 | 12.22° C | 59% | 1010.8 hPa | 0 mm | - | 0 W/m² | - |
| 1777854602 | 12.78° C | 58% | 1011.1 hPa | 0 mm | - | 2 W/m² | - |
| 1777854301 | 12.78° C | 58% | 1011.1 hPa | 0 mm | - | 4 W/m² | - |
| 1777853701 | 13.33° C | 56% | 1011.1 hPa | 0 mm | - | 7 W/m² | - |
| 1777853402 | 13.33° C | 56% | 1011 hPa | 0 mm | - | 8 W/m² | - |
| 1777852502 | 13.89° C | 54% | 1010.9 hPa | 0 mm | - | 15 W/m² | - |
| 1777852201 | 13.89° C | 54% | 1010.5 hPa | 0 mm | - | 14 W/m² | - |
| 1777851902 | 13.89° C | 52% | 1010.7 hPa | 0 mm | - | 16 W/m² | - |
| 1777851301 | 14.44° C | 51% | 1010.7 hPa | 0 mm | - | 17 W/m² | - |
* Rain latest hour (hover to see other rain measurements)
** Current wind speed in m/s (hover to see current wind gust speed)